Regional Weather Roundup
Issued by NWS

Home | Current Version | Previous Version | Graphics & Text | Print | Product List | Glossary On
Versions: 1 2 3 4 5 6 7 8 9 10 11 12 13 14 15 16 17 18 19 20 21 22 23 24 25 26 27
000
ASUS45 KTFX 250810
RWRMT
MONTANA REGIONAL WEATHER ROUNDUP
NATIONAL WEATHER SERVICE GREAT FALLS MT
200 AM MDT TUE JUL 25 2017

NOTE: "FAIR" INDICATES FEW OR NO CLOUDS BELOW 12000 FEET WITH NO
SIGNIFICANT WEATHER AND/OR OBSTRUCTIONS TO VISIBILITY.

MTZ001>007-043-250900-
WEST OF THE DIVIDE

CITY           SKY/WX    TMP DP  RH WIND       PRES   REMARKS
KALISPELL      MOCLDY    63  39  41 N12       29.97F
MISSOULA       PTCLDY    63  35  35 NE3       30.00R
BUTTE          CLEAR     56  37  49 SE6       30.13R
MULLAN PASS    CLOUDY    61  25  25 CALM      30.14S
ANACONDA         N/A     59  34  38 SW6       30.09S
DEER LODGE       N/A     55  34  44 CALM      30.09S
EUREKA           N/A     55  34  44 MISG      30.00R
HAMILTON         N/A     59  45  58 CALM      30.02R
LIBBY            N/A     52  34  50 CALM      29.98R
PLAINS           N/A     57  36  45 CALM      29.99R
THOMPSON FALLS   N/A     57  36  45 CALM      30.03R
$$

MTZ008-052>055-250900-
SOUTHWEST MONTANA

CITY           SKY/WX    TMP DP  RH WIND       PRES   REMARKS
BOZEMAN        MOCLDY    63  47  55 S9        30.03F
DILLON         MOCLDY    60  47  61 W12       30.09R
W YELLOWSTONE  PTCLDY    45  43  93 S9        30.21F
ENNIS          PTCLDY    63  39  42 W8        30.18R
THREE FORKS      N/A     55  47  74 CALM      30.02R
TWIN BRIDGES     N/A     63  49  60 CALM      30.08R
$$

MTZ009-010-012-014-046-048-049-054-250900-
EAST SLOPES AND CENTRAL MONTANA

CITY           SKY/WX    TMP DP  RH WIND       PRES   REMARKS
CUT BANK       MOCLDY    48  41  76 NW9       30.14S
GREAT FALLS    CLEAR     58  34  40 N12       30.10R
MALMSTROM AFB  CLEAR     60  35  40 N9        30.08R
HELENA         PTCLDY    69  42  37 NW14      30.06R
CHOTEAU          N/A     54  39  58 NW10      30.15R
$$

MTZ011-013-016-021-045-047-050-051-250900-
NORTH CENTRAL MONTANA

CITY           SKY/WX    TMP DP  RH WIND       PRES   REMARKS
HAVRE          MOCLDY    59  41  51 E5        30.05R
LEWISTOWN      PTCLDY    64  42  44 E6        30.03R
N BAR RANCH      N/A     64  41  42 CALM      30.07R
CHINOOK          N/A     61  39  44 W5        30.03R
$$

MTZ017>020-022>027-061-062-250900-
NORTHEAST MONTANA

CITY           SKY/WX    TMP DP  RH WIND       PRES   REMARKS
GLASGOW        MOCLDY    69  34  27 N13       29.96R
JORDAN           N/A     69  44  40 NE17      29.94R
SIDNEY         CLOUDY    71  46  40 N16       29.94R
WOLF POINT     CLOUDY    69  42  37 E5        29.93R
MALTA          CLOUDY    64  39  39 N10       29.99R
PLENTYWOOD       N/A     64  41  42 NW7G16    29.93S
POPLAR           N/A     66  43  42 CALM      29.93R
SCOBEY           N/A     50  37  60 CALM      29.97R
$$

MTZ028>42-056>058-250900-
SOUTHCENTRAL AND SOUTHEAST MONTANA

CITY           SKY/WX    TMP DP  RH WIND       PRES   REMARKS
BAKER          MOCLDY    70  52  52 CALM      29.92R
BILLINGS       MOCLDY    72  45  37 N6        29.93R
LIVINGSTON     PTCLDY    67  43  41 NW15      30.02S
MILES CITY     CLOUDY    75  46  35 NE9       29.88R
BIG TIMBER     CLEAR     70  43  37 NW8G14    30.04R
EKALAKA          N/A     76  46  34 SW2       29.94F
FORSYTH          N/A     73  48  40 CALM      29.88S
LAUREL           N/A     69  45  42 CALM      29.94S
$$

REGIONAL REPORTS...DAKOTAS

CITY           SKY/WX    TMP DP  RH WIND       PRES   REMARKS
WILLISTON      CLOUDY    65  49  56 NE5       29.92R
MINOT          CLOUDY    68  57  68 W9        29.85R
DICKINSON      PTCLDY    64  57  78 CALM      29.88S
BEACH            N/A     63  52  67 CALM      29.95S
CROSBY           N/A     54  45  71 SW5       29.91S
TIOGA            N/A     63  50  63 CALM      29.93R
WATFORD CITY     N/A     63  50  63 N3        29.90R
BISMARCK       CLEAR     69  66  90 NE3       29.84S
GRAND FORKS    MOCLDY    68  65  90 S13       29.85S
FARGO          CLOUDY    70  64  81 S15G23    29.86F
BUFFALO SD       N/A     74  60  61 W5        29.87R
RAPID CITY     CLEAR     67  55  65 NW7       29.85F
$$

REGIONAL REPORTS...WYOMING/IDAHO/WASHINGTON

CITY           SKY/WX    TMP DP  RH WIND       PRES   REMARKS
GILLETTE       PTCLDY    64  51  62 W7        29.97R
SHERIDAN       MOCLDY    64  50  60 S8        29.97F
BUFFALO WY     PTCLDY    73  44  35 NW13      30.05S
CODY           MOCLDY    71  41  33 SE3       30.04S
YELLOWSTONE LA   N/A     45  42  89 CALM      30.30F
IDAHO FALLS    CLOUDY    61  54  77 N7        30.04R
BOISE          CLOUDY    78  47  33 NW5       29.92R
SPOKANE        PTCLDY    66  37  34 CALM      29.97R
$$

REGIONAL REPORTS...ALBERTA

CITY           SKY/WX    TMP DP  RH WIND       PRES   REMARKS
EDMONTON       CLEAR     50  48  93 W7        29.98R
CALGARY        PTCLDY    54  43  66 SW6       30.11R
LETHBRIDGE     CLEAR     45  41  87 SW8       30.13R
MEDICINE HAT   CLEAR     52  45  76 S7        30.07R
WATERTON GATE    N/A     43  39  87 CALM        N/A
MILK RIVER       N/A     46  43  87 CALM        N/A
ONEFOUR          N/A     55  39  54 NW14        N/A
$$

REGIONAL REPORTS...SASKATCHEWAN

CITY           SKY/WX    TMP DP  RH WIND       PRES   REMARKS
SWIFT CURRENT  CLEAR     52  45  76 W14       29.97R
REGINA         CLEAR     54  45  71 SW13      29.89R
SASKATOON      LGT RAIN  57  55  94 W15       29.77R
CYPRESS HILLS    N/A     48  39  71 NW6         N/A
VAL MARIE        N/A     54  39  58 N9          N/A
ROCKGLEN         N/A     57  39  51 NW10G17     N/A
ASSINIBOIA       N/A     54  52  94 W9          N/A
$$




USA.gov is the U.S. government's official web portal to all federal, state and local government web resources and services.